HECAHEAX

Guest
Details From HECA - Cairo Intl
To HEAX - ALEXANDRIA INTL
Flight Number -
Tags generated
Created
Modified
Stats Distance 99 nm / 183 km
Max Altitude 0 ft / 0 m
Waypoints 3
Social Downloads 3
Likes 0
Share VATSIM

Download

Looking for another format? Having issues loading an existing format? Contact us
Advertisement - Login to hide

Notes

Basic altitude profile: - Ascent Rate: 2500ft/min - Ascent Speed: 250kts - Cruise Altitude: 35000ft - Cruise Speed: 420kts - Descent Rate: 1500ft/min - Descent Speed: 250kts Options: - Use NATs: yes - Use PACOTS: yes - Use low airways: yes - Use high airways: yes

Route

HECA AXD HEAX

ID Type Via Altitude Latitude Longitude Leg Dist Tot Dist Heading (true) Name
O HECA APT - 0 ft / 0 m 30.12181˚ 31.40610˚ - 0 nm - Cairo Intl
AXD VOR - 0 ft / 0 m 31.18694˚ 29.95036˚ 98 nm 98 nm 311° / 310° ALEXANDRIA VOR-DME
O HEAX APT - 0 ft / 0 m 31.18372˚ 29.94760˚ 0 nm 98 nm 216° / 216° ALEXANDRIA INTL

Altitude Profile

Advertisement - Login to hide

HECA

Details ICAO HECA (CAI)
Name Cairo Intl
Region Egypt
Timezone Africa/Cairo (UTC+2.0)
Stats Elevation 382 ft / 116 m (AMSL)
Location 30.121808° 31.406095°
Runways 3
Magnetic Variation 4.403° E

METAR

HECA 130530Z 31004KT 2000 BR BKN025 16/15 Q1021 NOSIG

Decode

TAF

TAF HECA 130106Z 1300/1406 VRB03KT 4000 BR NSC TEMPO 1300/1307 2000 TEMPO 1301/1306 1200 PROB40 TEMPO 1303/1305 0800 FG

Decode

Departure Runways

ID Width Length Bearing (true) Bearing (mag) Surface Threshold Offset Overrun Length
05L 197 ft / 60 m 10,833 ft / 3,302 m 49.29° 44.89° Asphalt 0 ft / 0 m 185 ft / 56 m
05R 197 ft / 60 m 13,126 ft / 4,001 m 49.03° 44.63° Asphalt 0 ft / 0 m 216 ft / 66 m
16 197 ft / 60 m 10,456 ft / 3,187 m 162.61° 158.21° Asphalt 0 ft / 0 m 125 ft / 38 m
23L 197 ft / 60 m 13,126 ft / 4,001 m 229.05° 224.65° Asphalt 0 ft / 0 m 225 ft / 69 m
23R 197 ft / 60 m 10,833 ft / 3,302 m 229.30° 224.90° Asphalt 0 ft / 0 m 185 ft / 56 m
34 197 ft / 60 m 10,456 ft / 3,187 m 342.61° 338.21° Asphalt 0 ft / 0 m 195 ft / 59 m

HEAX

Details ICAO HEAX (ALY)
Name ALEXANDRIA INTL
Region Egypt
Timezone Africa/Cairo (UTC+2.0)
Stats Elevation -6 ft / -2 m (AMSL)
Location 31.183715° 29.947602°
Runways 2
Magnetic Variation 4.420° E

METAR

HEAX 130500Z 34010KT 9999 SCT020 18/12 Q1021 NOSIG

Decode

TAF

TAF HEAX 122300Z 1300/1406 35012KT 9999 FEW020

Decode

Destination Runways

ID Width Length Bearing (true) Bearing (mag) Surface Threshold Offset Overrun Length
04 148 ft / 45 m 7,225 ft / 2,202 m 44.92° 40.50° Asphalt 0 ft / 0 m 230 ft / 70 m
18 98 ft / 30 m 5,927 ft / 1,807 m 179.99° 175.57° Asphalt 0 ft / 0 m 198 ft / 60 m
22 148 ft / 45 m 7,225 ft / 2,202 m 224.93° 220.51° Asphalt 0 ft / 0 m 268 ft / 82 m
36 98 ft / 30 m 5,927 ft / 1,807 m 359.99° 355.57° Asphalt 0 ft / 0 m 375 ft / 114 m

Popular Alternatives